Location: Unspecified
(0.0000°N, 0.0000°E)
Time: 05:46:48
(UTC+00:00)

Vanguard 1 - All Passes

Search period start: 01 August 2015 00:00
Search period end: 11 August 2015 00:00
Orbit: 649 x 3836 km, 34.3° (Epoch: 31 July)

Date Brightness Start Highest point End Pass type
(mag) Time Alt. Az. Time Alt. Az. Time Alt. Az.
01 Aug - 00:49:51 10° WSW 01:01:22 78° NW 01:22:14 10° NE visible
01 Aug - 03:14:04 10° W 03:29:24 35° NNW 03:49:13 10° NE visible
01 Aug - 05:47:29 10° NW 06:02:46 20° N 06:16:57 10° NE visible
01 Aug - 08:21:32 10° NNW 08:36:28 23° NNE 08:47:49 10° ENE daylight
01 Aug - 10:48:53 10° NW 11:04:38 47° NNE 11:13:26 10° E daylight
01 Aug - 13:16:11 10° WNW 13:27:01 48° SW 13:33:07 10° SSE daylight
01 Aug - 22:51:36 10° SSW 22:59:46 47° SE 23:14:44 10° ENE visible
02 Aug - 01:11:20 10° WSW 01:23:17 61° NNW 01:44:00 10° NE visible
02 Aug - 03:37:21 10° WNW 03:52:36 29° NNW 04:10:56 10° NNE visible
02 Aug - 06:11:56 10° NW 06:26:48 19° N 06:40:20 10° NE daylight
02 Aug - 08:43:28 10° NNW 08:59:39 27° NNE 09:11:07 10° ENE daylight
02 Aug - 11:10:27 10° NW 11:26:33 63° NNE 11:35:03 10° ESE daylight
02 Aug - 13:38:59 10° WNW 13:48:01 31° SW 13:53:31 10° SSE daylight
02 Aug - 20:58:15 10° SSE 20:59:39 11° SE 21:01:56 10° SE night (unlit)
02 Aug - 23:12:18 10° SW 23:20:55 65° SE 23:37:26 10° ENE visible
03 Aug - 01:33:11 10° W 01:45:30 48° NNW 02:05:38 10° NE visible
03 Aug - 04:01:09 10° WNW 04:16:05 24° NNW 04:32:58 10° NNE visible
03 Aug - 06:35:42 10° NW 06:50:48 20° N 07:04:15 10° NE daylight
03 Aug - 09:05:08 10° NW 09:22:32 34° NNE 09:33:56 10° E daylight
03 Aug - 11:32:13 10° NW 11:48:09 85° NE 11:56:20 10° SE daylight
03 Aug - 14:02:35 10° W 14:09:04 19° SW 14:13:25 10° S daylight
03 Aug - 21:16:20 10° S 21:20:58 18° SE 21:28:00 10° E night (unlit)
03 Aug - 23:33:14 10° SW 23:42:14 87° SE 23:59:43 10° NE visible
04 Aug - 01:55:25 10° W 02:08:02 39° NNW 02:27:11 10° NE visible
04 Aug - 04:25:20 10° NW 04:39:53 21° N 04:55:31 10° NE visible
04 Aug - 06:58:38 10° NNW 07:14:37 22° N 07:28:18 10° ENE daylight
04 Aug - 09:26:41 10° NW 09:45:06 43° NNE 09:56:17 10° E daylight
04 Aug - 11:54:19 10° WNW 12:09:29 71° SW 12:17:20 10° SE daylight
04 Aug - 14:28:10 10° SW 14:30:18 11° SW 14:31:40 10° SSW daylight
04 Aug - 21:36:10 10° SSW 21:42:06 29° SE 21:51:56 10° E night (unlit)
04 Aug - 23:54:26 10° WSW 00:03:48 72° NNW 00:21:38 10° NE visible
05 Aug - 02:18:07 10° WNW 02:30:53 31° NNW 02:48:49 10° NE visible
05 Aug - 04:49:34 10° NW 05:03:52 20° N 05:18:47 10° NE visible
05 Aug - 07:20:56 10° NNW 07:38:11 26° NNE 07:52:06 10° ENE daylight
05 Aug - 09:48:15 10° NW 10:07:22 55° NNE 10:18:13 10° ESE daylight
05 Aug - 12:16:49 10° WNW 12:30:38 50° SW 12:38:05 10° SSE daylight
05 Aug - 21:56:30 10° SSW 22:03:07 44° SE 22:15:01 10° ENE night (unlit)
06 Aug - 00:15:56 10° WSW 00:25:39 55° NNW 00:43:20 10° NE visible
06 Aug - 02:41:18 10° WNW 02:54:01 26° NNW 03:10:39 10° NNE visible
06 Aug - 05:13:24 10° NW 05:27:56 20° N 05:42:45 10° NE visible
06 Aug - 07:42:48 10° NW 08:01:27 31° NNE 08:15:27 10° ENE daylight
06 Aug - 10:09:56 10° NW 10:29:20 70° NNE 10:39:48 10° ESE daylight
06 Aug - 12:39:49 10° WNW 12:51:41 34° SW 12:58:31 10° SSE daylight
06 Aug - 22:17:09 10° SW 22:24:11 65° SE 22:37:32 10° ENE visible
07 Aug - 00:37:47 10° W 00:47:49 42° NNW 01:04:52 10° NE visible
07 Aug - 03:04:56 10° NW 03:17:29 22° N 03:32:54 10° NNE visible
07 Aug - 05:36:35 10° NNW 05:51:57 21° N 06:07:11 10° NE visible
07 Aug - 08:04:26 10° NW 08:24:24 39° NNE 08:38:18 10° E daylight
07 Aug - 10:31:51 10° NW 10:51:00 90° NE 11:01:05 10° SE daylight
07 Aug - 13:03:34 10° W 13:12:49 23° SW 13:18:36 10° S daylight
07 Aug - 20:21:41 10° S 20:24:53 15° SE 20:29:23 10° ESE night (unlit)
07 Aug - 22:38:05 10° SW 22:45:26 89° NNW 22:59:37 10° NE visible
08 Aug - 01:00:02 10° W 01:10:16 33° NNW 01:26:22 10° NE visible
08 Aug - 03:28:49 10° NW 03:41:12 20° N 03:55:49 10° NE visible
08 Aug - 05:59:05 10° NNW 06:15:47 24° NNE 06:31:36 10° ENE daylight
08 Aug - 08:25:59 10° NW 08:47:01 48° NNE 09:00:39 10° E daylight
08 Aug - 10:54:04 10° WNW 11:12:24 70° SW 11:22:05 10° SE daylight
08 Aug - 13:28:29 10° WSW 13:34:08 14° SW 13:37:55 10° SSW daylight
08 Aug - 20:41:15 10° SSW 20:45:58 25° SE 20:53:15 10° E night (unlit)
08 Aug - 22:59:18 10° WSW 23:06:55 65° NNW 23:21:23 10° NE visible
09 Aug - 01:22:45 10° WNW 01:33:01 26° NNW 01:47:56 10° NNE visible
09 Aug - 03:52:33 10° NW 04:05:06 19° N 04:19:36 10° NE visible
09 Aug - 06:21:05 10° NNW 06:39:21 29° NNE 06:55:38 10° ENE daylight
09 Aug - 08:47:34 10° NW 09:09:20 60° NNE 09:22:35 10° ESE daylight
09 Aug - 11:16:42 10° WNW 11:33:39 52° SW 11:42:50 10° SSE daylight
09 Aug - 21:01:30 10° SSW 21:06:56 41° SE 21:16:07 10° ENE night (unlit)
09 Aug - 23:20:51 10° W 23:28:43 47° NNW 23:42:54 10° NE visible
10 Aug - 01:45:56 10° WNW 01:56:04 22° NNW 02:09:44 10° NNE visible
10 Aug - 04:15:49 10° NNW 04:29:03 19° N 04:44:11 10° NE visible
10 Aug - 06:42:45 10° NW 07:02:36 35° NNE 07:19:07 10° E daylight
10 Aug - 09:09:18 10° NW 09:31:21 75° NE 09:44:10 10° ESE daylight
10 Aug - 11:39:53 10° WNW 11:54:52 38° SW 12:03:21 10° SSE daylight
10 Aug - 21:22:09 10° SW 21:27:57 66° SE 21:38:24 10° ENE night (unlit)
